Starlink 30162

operational
NORAD ID: 57446 Int'l Des: 2023-105 Owner: SPXS Country: US Constellation: starlink
LEOCIRCULAR

About Starlink 30162

Description loading...

Live Position

Loading 3D Globe...

Upcoming Passes

Altitude History

Altitude vs Time

uPlot chart will show altitude changes over time

Two-Line Element Set

1 57446U 23105S 25303.79599514 .00000299 00000-0 37192-4 0 9995
2 57446 43.0026 234.5064 0001086 268.2701 91.8017 15.02538055126175
Epoch: Oct 30, 2025 • Age: 20 hours

Current Status

Altitude 562.9 km
Velocity 7.59 km/s
Sub-Earth Point 42.87°N, 68°E
Launch Date Jul 24, 2023
Age 2.2 years
Type internet

Technical Details

Classification Payload
Mass 730.00 kg
Dry Mass 700.00 kg
Total Mass 730.00 kg
Length 0.30 m
Diameter 4.10 m
Span 29.00 m
Shape Box + pan
Manufacturer SPXS
Bus Type Starlink V2M
Phase Status In Orbit
Owner/State SPXS/US

Large Constellations

Loading constellations...